ONEWEB-0227 (48792 NORAD) Tracking and Keplerian Element Data

This shows tracking and keplerian element data for the satellite.

Feedback or suggestion? Click here.




ElementValue
Catalog48792
NameONEWEB-0227
Epoch Orbit186
Epoch Day170.58334491
Epoch Year2021
RAAN268.8719
Inclination87.4142
Eccentricity0.0008471
Argument of Perigee159.5266
Mean Anonmoly301.0685
Mean Motion15.33319235
Decay Rate-0.00879566
L11 48792U 21045AB 21170.58334491 -.00879566 00000-0 -29704-1 0 9996
L22 48792 87.4142 268.8719 0008471 159.5266 301.0685 15.33319235 1866

Live tracking and technical data element details for ONEWEB-0227 (NORAD 48792). ONEWEB-0227 can be tracked NOW for your location showing map with azimuth and elevation plus other details from your city location.

Track the satellite on the map from your city or location and see movement details for azimuth, elevation, latitude, longitude, range, height, and movement on the map or in text.







IsCatalogInMostPopularTable: catalog: 48792, numindb: 7
Update: records affected: 1



GetName: 48792 ONEWEB-0227

Hit Count: updated at: Mon, 21 Jun 2021 02:58:28 GMT